Regional Weather Roundup
Issued by NWS Albany, NY

Home | Current Version | Previous Version | Graphics & Text | Print | Product List | Glossary Off
Versions: 1 2 3 4 5 6 7 8 9 10 11 12 13 14 15 16 17 18 19 20 21 22 23 24 25 26 27 28 29 30 31 32 33 34 35 36 37 38 39 40 41 42 43 44 45 46 47 48

000
ASUS41 KALY 270410
RWRALY

NEW YORK STATE HOURLY WEATHER ROUNDUP
NATIONAL WEATHER SERVICE ALBANY NY
1100 PM EST FRI DEC 26 2014

NOTE: "FAIR" INDICATES FEW OR NO CLOUDS BELOW 12,000 FEET WITH NO
SIGNIFICANT WEATHER AND/OR NO OBSTRUCTIONS TO VISIBILITY.

NYZ032-033-038>043-046>054-057>066-NYZ062>081-270500-
EAST


CITY           SKY/WX    TMP DP  RH WIND       PRES   REMARKS
ALBANY         CLEAR     29  25  85 SE3       30.17F
GLENS FALLS    PTCLDY    28  25  88 CALM      30.16F
POUGHKEEPSIE   CLEAR     29  24  82 CALM      30.20S
NEWBURGH       CLEAR     36  28  75 W7        30.21S WCI  30
MONTGOMERY     CLEAR     28  25  88 SW6       30.19F WCI  22
WHITE PLAINS   CLEAR     40  28  62 W7        30.19F
ISLIP          PTCLDY    33  27  78 CALM      30.21S
NEW YORK CITY  PTCLDY    45  30  55 W10       30.21F
CENTRAL PARK   CLEAR     43  29  57 MISG      30.24F
$$

NYZ005>009-017-018-044>046-055-056-270500-
CENTRAL


CITY           SKY/WX    TMP DP  RH WIND       PRES   REMARKS
FULTON         CLEAR     32  27  81 CALM      30.15R
SYRACUSE       CLEAR     29  27  92 CALM      30.15R
ROME           CLEAR     27  25  92 CALM      30.17F
ELMIRA         CLEAR     25  22  88 CALM      30.17S
BINGHAMTON     CLEAR     35  26  69 SW8       30.14F WCI  29
MONTICELLO     PTCLDY    30  27  86 CALM      30.17F
$$

NYZ026>034-041>043-270500-
NORTH


CITY           SKY/WX    TMP DP  RH WIND       PRES   REMARKS
WATERTOWN      CLOUDY    43  27  53 SW9       30.14R
FORT DRUM      NOT AVBL
MASSENA        CLOUDY    39  31  72 SW6       30.12F WCI  35
SARANAC LAKE   CLOUDY    34  28  79 SW9       30.07S WCI  27
PLATTSBURGH    CLOUDY    42  30  62 CALM      30.12S
$$

NYZ001>004-010>016-019>021-270500-
WEST


CITY           SKY/WX    TMP DP  RH WIND       PRES   REMARKS
NIAGARA FALLS  PTCLDY    37  32  82 SW5       30.13S WCI  33
BUFFALO        PTCLDY    38  31  76 SW6       30.14R WCI  33
DUNKIRK        PTCLDY    41  32  70 SW10      30.14S
JAMESTOWN      PTCLDY    37  28  70 S7        30.14F WCI  32
WELLSVILLE     CLEAR     38  29  70 W12G22    30.14S WCI  30
ROCHESTER      CLEAR     32  27  81 CALM      30.14S
PENN YAN       CLEAR     34  29  82 CALM      30.15R
$$

             KEY
       WCI = WIND CHILL INDEX
       VSB = VISIBILITY
       HX  = HEAT INDEX
$$



USA.gov is the U.S. government's official web portal to all federal, state and local government web resources and services.